Find Starlink 30933

NORAD ID: 58410 Int'l Des: 2023-180 Owner: SPXS Country: US Constellation: starlink operational
LEOCIRCULAR

当前视图

正在加载3D地球...

About Starlink 30933

Starlink 30933 (NORAD 58410) is a starlink constellation satellite (v2 mini) launched Nov 22, 2023 by SPXS of US. It operates in LEO, CIRCULAR orbit with a mass of 730.00 kg.

关于 Starlink 30933

正在加载描述...

即将过境

Passes for default location (London). Set your location on the main map for personalized predictions.

高度历史

Loading altitude history...

两行轨道根数

1 58410U 23180J 26174.64074553 .00000039 00000-0 10939-4 0 9994
2 58410 43.0038 28.3906 0001108 267.1468 92.9257 15.27576281145547
Epoch: Jun 23, 2026 • Age: 22 hours

当前状态

高度 486.3 km
速度 7.63 km/s
星下点 40.06°N, 19.25°E
发射日期 Nov 22, 2023
运行时间 2.5 years
类型 internet

技术详情

分类 Payload
质量 730.00 kg
干质量 700.00 kg
总质量 730.00 kg
长度 0.30 m
直径 4.10 m
跨度 29.00 m
形状 Box + pan
制造商 SPXS
平台类型 Starlink V2M
阶段状态 In Orbit
所有者/国家 SPXS/US

Most Searched